| time (UTC) | temp F | wind direction | speed MPH | gust MPH | rain 1hr in | rain 24hr in | rain mn in | humidity % | barometer mb |
| 20260508120803 | 67 | 65 | 1.0 | 5.0 | 0.00 | 0.01 | 0.01 | 55 | 1016.3 |
| 20260508120304 | 67 | 23 | 1.0 | 5.0 | 0.00 | 0.01 | 0.01 | 58 | 1016.3 |
| 20260508115804 | 67 | 92 | 1.0 | 6.0 | 0.00 | 0.01 | 0.01 | 57 | 1016.3 |
| 20260508115306 | 69 | 26 | 3.0 | 5.0 | 0.00 | 0.01 | 0.01 | 55 | 1016.3 |
| 20260508114804 | 71 | 300 | 2.0 | 6.0 | 0.00 | 0.01 | 0.01 | 56 | 1016.4 |
| 20260508114303 | 71 | 254 | 2.0 | 5.0 | 0.00 | 0.01 | 0.01 | 52 | 1016.5 |
| 20260508113804 | 71 | 54 | 1.0 | 5.0 | 0.00 | 0.01 | 0.01 | 50 | 1016.5 |
| 20260508113304 | 71 | 222 | 1.0 | 3.0 | 0.00 | 0.01 | 0.01 | 52 | 1016.6 |
| 20260508112804 | 70 | 126 | 1.0 | 3.0 | 0.00 | 0.01 | 0.01 | 57 | 1016.6 |
| 20260508112306 | 70 | 105 | 1.0 | 5.0 | 0.00 | 0.01 | 0.01 | 55 | 1016.6 |
| 20260508111803 | 70 | 115 | 2.0 | 3.0 | 0.00 | 0.01 | 0.01 | 56 | 1016.7 |
| 20260508111304 | 68 | 97 | 1.0 | 2.0 | 0.00 | 0.01 | 0.01 | 56 | 1016.7 |
| 20260508110303 | 68 | 63 | 1.0 | 5.0 | 0.00 | 0.01 | 0.01 | 57 | 1016.7 |
| 20260508105804 | 66 | 96 | 1.0 | 2.0 | 0.00 | 0.01 | 0.01 | 61 | 1016.7 |
| 20260508105306 | 67 | 293 | 1.0 | 2.0 | 0.00 | 0.01 | 0.01 | 61 | 1017.1 |
| 20260508104804 | 67 | 293 | 1.0 | 3.0 | 0.00 | 0.01 | 0.01 | 59 | 1017.1 |
| 20260508104303 | 67 | 282 | 2.0 | 5.0 | 0.00 | 0.01 | 0.01 | 59 | 1017.1 |
| 20260508102306 | 63 | 24 | 1.0 | 2.0 | 0.00 | 0.01 | 0.01 | 64 | 1017.1 |
| 20260508101804 | 63 | 94 | 1.0 | 1.0 | 0.00 | 0.01 | 0.01 | 66 | 1017.1 |
| 20260508101303 | 63 | 32 | 1.0 | 2.0 | 0.00 | 0.01 | 0.01 | 65 | 1017.1 |
| 20260508100803 | 63 | 35 | 0.0 | 2.0 | 0.00 | 0.01 | 0.01 | 63 | 1017.1 |
| 20260508095803 | 65 | 305 | 0.0 | 3.0 | 0.00 | 0.01 | 0.01 | 61 | 1017.1 |
| 20260508095306 | 66 | 343 | 1.0 | 7.0 | 0.00 | 0.01 | 0.01 | 62 | 1017.3 |
| 20260508093804 | 67 | 282 | 1.0 | 3.0 | 0.00 | 0.01 | 0.01 | 63 | 1017.3 |
| 20260508093303 | 67 | 47 | 1.0 | 5.0 | 0.00 | 0.01 | 0.01 | 59 | 1017.3 |
| 20260508092312 | 67 | 311 | 2.0 | 3.0 | 0.00 | 0.01 | 0.01 | 63 | 1017.3 |
| 20260508091804 | 66 | 209 | 0.0 | 2.0 | 0.00 | 0.01 | 0.01 | 64 | 1017.3 |
| 20260508091303 | 65 | 220 | 1.0 | 5.0 | 0.00 | 0.01 | 0.01 | 65 | 1017.3 |
| 20260508090304 | 65 | 58 | 1.0 | 3.0 | 0.00 | 0.01 | 0.01 | 64 | 1017.3 |
| 20260508085804 | 64 | 307 | 1.0 | 3.0 | 0.00 | 0.01 | 0.01 | 67 | 1017.3 |
| 20260508085306 | 64 | 270 | 2.0 | 3.0 | 0.00 | 0.01 | 0.01 | 66 | 1017.3 |
| 20260508084803 | 63 | 261 | 0.0 | 3.0 | 0.00 | 0.01 | 0.01 | 67 | 1017.2 |
| 20260508083804 | 62 | 300 | 2.0 | 5.0 | 0.00 | 0.01 | 0.01 | 70 | 1017.3 |
| 20260508083304 | 61 | 304 | 1.0 | 3.0 | 0.00 | 0.01 | 0.01 | 71 | 1017.3 |
| 20260508082306 | 62 | 275 | 1.0 | 2.0 | 0.00 | 0.01 | 0.01 | 72 | 1017.3 |
| 20260508081804 | 60 | 275 | 2.0 | 3.0 | 0.00 | 0.01 | 0.01 | 71 | 1017.4 |
| 20260508081304 | 60 | 233 | 1.0 | 2.0 | 0.00 | 0.01 | 0.01 | 75 | 1017.4 |
| 20260508080303 | 59 | 275 | 0.0 | 2.0 | 0.00 | 0.01 | 0.01 | 75 | 1017.3 |
| 20260508075803 | 59 | 292 | 1.0 | 2.0 | 0.00 | 0.01 | 0.01 | 74 | 1017.3 |
| 20260508075308 | 58 | 61 | 1.0 | 2.0 | 0.00 | 0.01 | 0.01 | 77 | 1017.4 |
| 20260508074803 | 58 | 61 | 1.0 | 2.0 | 0.00 | 0.02 | 0.01 | 78 | 1017.4 |
| 20260508074303 | 57 | 61 | 1.0 | 5.0 | 0.00 | 0.02 | 0.01 | 78 | 1017.4 |
| 20260508073804 | 57 | 277 | 1.0 | 3.0 | 0.00 | 0.02 | 0.01 | 79 | 1017.4 |
| 20260508073303 | 56 | 120 | 1.0 | 2.0 | 0.00 | 0.02 | 0.01 | 80 | 1017.4 |
| 20260508072804 | 56 | 159 | 0.0 | 5.0 | 0.00 | 0.02 | 0.01 | 80 | 1017.4 |
| 20260508072307 | 56 | 159 | 1.0 | 2.0 | 0.00 | 0.02 | 0.01 | 80 | 1017.5 |
| 20260508071804 | 55 | 111 | 1.0 | 2.0 | 0.00 | 0.02 | 0.01 | 82 | 1017.5 |
| 20260508071304 | 54 | 111 | 1.0 | 3.0 | 0.00 | 0.02 | 0.01 | 81 | 1017.5 |
| 20260508070804 | 54 | 111 | 0.0 | 1.0 | 0.00 | 0.02 | 0.01 | 83 | 1017.5 |
| 20260508070304 | 52 | 111 | 1.0 | 3.0 | 0.00 | 0.03 | 0.01 | 83 | 1017.5 |
| 20260508065803 | 52 | 163 | 2.0 | 5.0 | 0.00 | 0.03 | 0.01 | 84 | 1017.5 |
| 20260508065307 | 52 | 121 | 1.0 | 2.0 | 0.00 | 0.03 | 0.01 | 85 | 1017.4 |
| 20260508064304 | 50 | 121 | 0.0 | 3.0 | 0.00 | 0.03 | 0.01 | 88 | 1017.4 |
| 20260508063304 | 50 | 40 | 1.0 | 2.0 | 0.00 | 0.04 | 0.01 | 90 | 1017.4 |
| 20260508062803 | 49 | 39 | 0.0 | 1.0 | 0.00 | 0.04 | 0.01 | 91 | 1017.4 |
| 20260508062306 | 48 | 39 | 0.0 | 1.0 | 0.00 | 0.04 | 0.01 | 92 | 1017.4 |
| 20260508061804 | 47 | 39 | 0.0 | 1.0 | 0.00 | 0.04 | 0.01 | 97 | 1017.4 |
| 20260508061303 | 46 | 39 | 0.0 | 2.0 | 0.00 | 0.05 | 0.01 | 98 | 1017.3 |
| 20260508060804 | 46 | 39 | 1.0 | 2.0 | 0.00 | 0.05 | 0.01 | 97 | 1017.4 |
| 20260508060318 | 45 | 39 | 1.0 | 2.0 | 0.00 | 0.05 | 0.01 | 99 | 1017.5 |
| 20260508055804 | 45 | 38 | 1.0 | 2.0 | 0.00 | 0.05 | 0.01 | 100 | 1017.5 |
| 20260508054804 | 44 | 5 | 0.0 | 2.0 | 0.00 | 0.06 | 0.01 | 100 | 1017.5 |
| 20260508054303 | 44 | 5 | 0.0 | 1.0 | 0.00 | 0.06 | 0.01 | 100 | 1017.5 |
| 20260508053803 | 43 | 5 | 0.0 | 1.0 | 0.00 | 0.06 | 0.01 | 100 | 1017.5 |
| 20260508053304 | 43 | 5 | 0.0 | 2.0 | 0.00 | 0.06 | 0.01 | 100 | 1017.5 |
| 20260508052804 | 43 | 5 | 0.0 | 1.0 | 0.00 | 0.06 | 0.01 | 100 | 1017.4 |
| 20260508052306 | 43 | 5 | 0.0 | 0.0 | 0.00 | 0.06 | 0.01 | 100 | 1017.4 |
| 20260508051804 | 43 | 5 | 0.0 | 0.0 | 0.00 | 0.06 | 0.01 | 100 | 1017.4 |
| 20260508051303 | 43 | 5 | 0.0 | 1.0 | 0.00 | 0.06 | 0.01 | 100 | 1017.4 |
| 20260508050803 | 43 | 5 | 0.0 | 0.0 | 0.00 | 0.06 | 0.01 | 100 | 1017.3 |
| 20260508050304 | 43 | 5 | 0.0 | 1.0 | 0.00 | 0.06 | 0.01 | 100 | 1017.3 |
| 20260508045804 | 43 | 5 | 0.0 | 1.0 | 0.00 | 0.06 | 0.01 | 100 | 1017.4 |
| 20260508045306 | 42 | 5 | 0.0 | 1.0 | 0.00 | 0.06 | 0.01 | 100 | 1017.4 |
| 20260508044803 | 42 | 5 | 0.0 | 1.0 | 0.00 | 0.06 | 0.01 | 100 | 1017.4 |
| 20260508044304 | 42 | 5 | 0.0 | 1.0 | 0.00 | 0.06 | 0.01 | 100 | 1017.1 |
| 20260508043803 | 42 | 5 | 0.0 | 0.0 | 0.00 | 0.06 | 0.01 | 100 | 1017.1 |
| 20260508042307 | 41 | 5 | 0.0 | 1.0 | 0.00 | 0.06 | 0.01 | 100 | 1017.0 |
| 20260508041804 | 41 | 5 | 0.0 | 1.0 | 0.00 | 0.06 | 0.01 | 100 | 1017.0 |
| 20260508041303 | 42 | 5 | 0.0 | 1.0 | 0.00 | 0.07 | 0.01 | 100 | 1017.0 |
| 20260508040804 | 42 | 5 | 0.0 | 1.0 | 0.00 | 0.07 | 0.01 | 100 | 1016.8 |
| 20260508040303 | 42 | 5 | 0.0 | 0.0 | 0.00 | 0.07 | 0.01 | 100 | 1016.8 |
| 20260508035803 | 42 | 5 | 0.0 | 1.0 | 0.00 | 0.08 | 0.01 | 100 | 1016.8 |
| 20260508035306 | 41 | 5 | 0.0 | 0.0 | 0.00 | 0.08 | 0.01 | 100 | 1016.8 |
| 20260508034804 | 41 | 5 | 0.0 | 0.0 | 0.00 | 0.08 | 0.01 | 100 | 1016.8 |
| 20260508034304 | 41 | 5 | 0.0 | 0.0 | 0.00 | 0.08 | 0.01 | 100 | 1016.8 |
| 20260508033804 | 41 | 5 | 0.0 | 0.0 | 0.00 | 0.08 | 0.01 | 100 | 1016.8 |
| 20260508033304 | 41 | 5 | 0.0 | 0.0 | 0.00 | 0.08 | 0.01 | 100 | 1016.6 |
| 20260508032803 | 40 | 5 | 0.0 | 0.0 | 0.00 | 0.08 | 0.01 | 100 | 1016.6 |
| 20260508032306 | 40 | 5 | 0.0 | 0.0 | 0.00 | 0.08 | 0.01 | 100 | 1016.6 |
| 20260508031804 | 39 | 5 | 0.0 | 0.0 | 0.00 | 0.08 | 0.01 | 100 | 1016.6 |
| 20260508030303 | 39 | 5 | 0.0 | 0.0 | 0.00 | 0.09 | 0.01 | 100 | 1016.6 |
| 20260508025804 | 39 | 5 | 0.0 | 0.0 | 0.00 | 0.09 | 0.01 | 100 | 1016.6 |
| 20260508025306 | 39 | 5 | 0.0 | 0.0 | 0.00 | 0.09 | 0.01 | 100 | 1016.6 |
| 20260508024804 | 39 | 5 | 0.0 | 0.0 | 0.00 | 0.09 | 0.01 | 100 | 1016.7 |
| 20260508023803 | 39 | 5 | 0.0 | 0.0 | 0.00 | 0.09 | 0.01 | 100 | 1016.7 |
| 20260508023303 | 39 | 5 | 0.0 | 0.0 | 0.00 | 0.09 | 0.01 | 100 | 1016.7 |
| 20260508022804 | 39 | 5 | 0.0 | 0.0 | 0.00 | 0.09 | 0.01 | 100 | 1016.7 |
| 20260508022306 | 39 | 5 | 0.0 | 0.0 | 0.00 | 0.09 | 0.01 | 100 | 1016.7 |
| 20260508021803 | 39 | 5 | 0.0 | 0.0 | 0.00 | 0.09 | 0.01 | 100 | 1016.7 |
| 20260508021304 | 39 | 5 | 0.0 | 0.0 | 0.00 | 0.09 | 0.01 | 100 | 1016.7 |
| 20260508020804 | 40 | 5 | 0.0 | 0.0 | 0.00 | 0.09 | 0.01 | 100 | 1016.6 |
| 20260508020303 | 40 | 5 | 0.0 | 0.0 | 0.00 | 0.09 | 0.01 | 100 | 1016.6 |
| 20260508015803 | 40 | 5 | 0.0 | 0.0 | 0.00 | 0.09 | 0.01 | 100 | 1016.6 |
| 20260508015306 | 40 | 5 | 0.0 | 0.0 | 0.00 | 0.09 | 0.01 | 100 | 1016.6 |
| 20260508014803 | 40 | 5 | 0.0 | 0.0 | 0.00 | 0.09 | 0.01 | 100 | 1016.6 |
| 20260508014304 | 40 | 5 | 0.0 | 0.0 | 0.00 | 0.10 | 0.01 | 100 | 1016.6 |
| 20260508013804 | 40 | 5 | 0.0 | 0.0 | 0.00 | 0.10 | 0.01 | 100 | 1016.6 |
| 20260508013304 | 40 | 5 | 0.0 | 0.0 | 0.00 | 0.11 | 0.01 | 100 | 1016.6 |
| 20260508012804 | 40 | 5 | 0.0 | 0.0 | 0.00 | 0.11 | 0.01 | 100 | 1016.6 |
| 20260508012307 | 40 | 5 | 0.0 | 0.0 | 0.00 | 0.11 | 0.01 | 100 | 1016.6 |
| 20260508011804 | 41 | 5 | 0.0 | 0.0 | 0.00 | 0.11 | 0.01 | 100 | 1016.6 |
| 20260508011303 | 41 | 5 | 0.0 | 0.0 | 0.00 | 0.12 | 0.01 | 100 | 1016.6 |
| 20260508010819 | 41 | 5 | 0.0 | 0.0 | 0.00 | 0.12 | 0.01 | 100 | 1016.7 |
| 20260508010303 | 41 | 5 | 0.0 | 0.0 | 0.00 | 0.13 | 0.01 | 100 | 1016.7 |
| 20260508005804 | 41 | 5 | 0.0 | 0.0 | 0.00 | 0.13 | 0.01 | 100 | 1016.7 |
| 20260508005305 | 41 | 5 | 0.0 | 0.0 | 0.00 | 0.13 | 0.01 | 100 | 1017.0 |
| 20260508004803 | 41 | 5 | 0.0 | 0.0 | 0.00 | 0.13 | 0.01 | 100 | 1017.0 |
| 20260508003803 | 41 | 5 | 0.0 | 0.0 | 0.00 | 0.13 | 0.01 | 100 | 1017.0 |
| 20260508002804 | 41 | 5 | 0.0 | 0.0 | 0.00 | 0.13 | 0.01 | 100 | 1017.0 |
| 20260508001804 | 41 | 5 | 0.0 | 0.0 | 0.00 | 0.13 | 0.01 | 100 | 1016.9 |
| 20260508001304 | 42 | 5 | 0.0 | 0.0 | 0.01 | 0.13 | 0.01 | 100 | 1016.9 |
| 20260508000804 | 42 | 5 | 0.0 | 0.0 | 0.01 | 0.13 | 0.01 | 100 | 1017.1 |
| 20260507235803 | 42 | 5 | 0.0 | 0.0 | 0.01 | 0.13 | 0.01 | 100 | 1017.1 |
| 20260507235306 | 41 | 5 | 0.0 | 0.0 | 0.01 | 0.13 | 0.01 | 100 | 1017.1 |
| 20260507234803 | 41 | 5 | 0.0 | 0.0 | 0.01 | 0.13 | 0.01 | 100 | 1017.1 |
| 20260507233803 | 41 | 5 | 0.0 | 0.0 | 0.01 | 0.13 | 0.01 | 100 | 1017.1 |
| 20260507233304 | 41 | 5 | 0.0 | 0.0 | 0.01 | 0.13 | 0.01 | 100 | 1017.1 |
| 20260507232804 | 41 | 5 | 0.0 | 0.0 | 0.01 | 0.13 | 0.01 | 100 | 1017.1 |
| 20260507232306 | 41 | 5 | 0.0 | 0.0 | 0.01 | 0.13 | 0.01 | 100 | 1017.3 |
| 20260507231804 | 42 | 5 | 0.0 | 0.0 | 0.01 | 0.13 | 0.01 | 100 | 1017.3 |
| 20260507230804 | 41 | 5 | 0.0 | 0.0 | 0.00 | 0.12 | 0.00 | 100 | 1017.3 |
| 20260507230305 | 42 | 5 | 0.0 | 0.0 | 0.00 | 0.12 | 0.00 | 100 | 1017.3 |
| 20260507225803 | 42 | 5 | 0.0 | 0.0 | 0.00 | 0.12 | 0.00 | 100 | 1017.3 |
| 20260507225306 | 42 | 5 | 0.0 | 0.0 | 0.00 | 0.12 | 0.00 | 100 | 1017.3 |
| 20260507224803 | 42 | 5 | 0.0 | 1.0 | 0.00 | 0.12 | 0.00 | 100 | 1017.1 |
| 20260507223304 | 43 | 5 | 0.0 | 0.0 | 0.00 | 0.12 | 0.00 | 100 | 1017.1 |
| 20260507222803 | 43 | 5 | 0.0 | 0.0 | 0.00 | 0.12 | 0.00 | 100 | 1017.1 |
| 20260507221804 | 43 | 5 | 0.0 | 0.0 | 0.00 | 0.12 | 0.00 | 100 | 1017.1 |
| 20260507221303 | 43 | 5 | 0.0 | 0.0 | 0.00 | 0.12 | 0.00 | 100 | 1017.1 |
| 20260507220810 | 43 | 5 | 0.0 | 0.0 | 0.00 | 0.12 | 0.00 | 100 | 1017.1 |
| 20260507220304 | 43 | 5 | 0.0 | 1.0 | 0.00 | 0.12 | 0.00 | 100 | 1017.1 |
| 20260507215306 | 43 | 5 | 0.0 | 0.0 | 0.00 | 0.12 | 0.12 | 100 | 1017.1 |
| 20260507214803 | 43 | 5 | 0.0 | 0.0 | 0.00 | 0.12 | 0.12 | 99 | 1017.1 |
| 20260507214304 | 43 | 5 | 0.0 | 0.0 | 0.00 | 0.12 | 0.12 | 99 | 1017.1 |
| 20260507213303 | 44 | 5 | 0.0 | 1.0 | 0.00 | 0.12 | 0.12 | 99 | 1017.1 |
| 20260507212804 | 44 | 5 | 0.0 | 0.0 | 0.00 | 0.12 | 0.12 | 99 | 1017.1 |
| 20260507211803 | 44 | 5 | 0.0 | 0.0 | 0.00 | 0.12 | 0.12 | 99 | 1017.1 |
| 20260507211303 | 44 | 5 | 0.0 | 0.0 | 0.00 | 0.12 | 0.12 | 99 | 1017.1 |
| 20260507210803 | 44 | 5 | 0.0 | 0.0 | 0.00 | 0.12 | 0.12 | 99 | 1017.0 |
| 20260507210303 | 44 | 5 | 0.0 | 0.0 | 0.00 | 0.12 | 0.12 | 99 | 1017.0 |
| 20260507205306 | 45 | 5 | 0.0 | 0.0 | 0.00 | 0.12 | 0.12 | 99 | 1017.0 |
| 20260507204804 | 45 | 5 | 0.0 | 0.0 | 0.00 | 0.12 | 0.12 | 98 | 1017.0 |
| 20260507204305 | 45 | 5 | 0.0 | 0.0 | 0.00 | 0.12 | 0.12 | 99 | 1016.9 |
| 20260507203804 | 45 | 5 | 0.0 | 0.0 | 0.00 | 0.12 | 0.12 | 98 | 1016.9 |
| 20260507203304 | 45 | 5 | 0.0 | 0.0 | 0.00 | 0.13 | 0.12 | 98 | 1016.9 |
| 20260507202803 | 45 | 5 | 0.0 | 0.0 | 0.00 | 0.13 | 0.12 | 97 | 1016.7 |
| 20260507202306 | 46 | 5 | 0.0 | 0.0 | 0.00 | 0.13 | 0.12 | 98 | 1016.7 |
| 20260507201804 | 46 | 5 | 0.0 | 0.0 | 0.00 | 0.13 | 0.12 | 98 | 1016.7 |
| 20260507201304 | 46 | 5 | 0.0 | 0.0 | 0.00 | 0.13 | 0.12 | 97 | 1016.7 |
| 20260507200804 | 46 | 5 | 0.0 | 0.0 | 0.00 | 0.13 | 0.12 | 96 | 1016.7 |
| 20260507200304 | 47 | 5 | 0.0 | 0.0 | 0.00 | 0.13 | 0.12 | 96 | 1016.6 |
| 20260507195306 | 47 | 5 | 0.0 | 0.0 | 0.00 | 0.13 | 0.12 | 96 | 1016.4 |
| 20260507194803 | 47 | 5 | 0.0 | 0.0 | 0.00 | 0.13 | 0.12 | 96 | 1016.4 |
| 20260507194304 | 48 | 5 | 0.0 | 0.0 | 0.00 | 0.13 | 0.12 | 95 | 1016.4 |
| 20260507193804 | 48 | 5 | 0.0 | 0.0 | 0.00 | 0.13 | 0.12 | 95 | 1016.4 |
| 20260507193304 | 48 | 5 | 0.0 | 0.0 | 0.00 | 0.13 | 0.12 | 95 | 1016.4 |
| 20260507192803 | 49 | 5 | 0.0 | 0.0 | 0.00 | 0.13 | 0.12 | 94 | 1016.4 |
| 20260507191804 | 49 | 5 | 0.0 | 0.0 | 0.00 | 0.13 | 0.12 | 94 | 1016.3 |
| 20260507191304 | 49 | 5 | 0.0 | 0.0 | 0.00 | 0.13 | 0.12 | 93 | 1016.3 |
| 20260507190804 | 49 | 5 | 0.0 | 0.0 | 0.00 | 0.13 | 0.12 | 92 | 1016.2 |
| 20260507190303 | 50 | 5 | 0.0 | 0.0 | 0.00 | 0.14 | 0.12 | 91 | 1016.2 |
| 20260507185804 | 50 | 5 | 0.0 | 0.0 | 0.00 | 0.14 | 0.12 | 90 | 1016.1 |
| 20260507185305 | 51 | 5 | 0.0 | 0.0 | 0.00 | 0.15 | 0.12 | 89 | 1016.1 |
| 20260507183804 | 53 | 5 | 0.0 | 1.0 | 0.00 | 0.16 | 0.12 | 84 | 1016.0 |
| 20260507183304 | 53 | 5 | 0.0 | 2.0 | 0.00 | 0.17 | 0.12 | 83 | 1015.9 |
| 20260507182804 | 54 | 5 | 0.0 | 1.0 | 0.00 | 0.17 | 0.12 | 82 | 1015.9 |
| 20260507182306 | 54 | 5 | 1.0 | 3.0 | 0.00 | 0.17 | 0.12 | 80 | 1015.7 |
| 20260507181804 | 54 | 9 | 1.0 | 3.0 | 0.00 | 0.17 | 0.12 | 80 | 1015.7 |
| 20260507180803 | 55 | 9 | 0.0 | 2.0 | 0.00 | 0.18 | 0.12 | 80 | 1015.7 |
| 20260507175306 | 55 | 311 | 1.0 | 2.0 | 0.00 | 0.18 | 0.12 | 79 | 1015.6 |
| 20260507174804 | 56 | 311 | 0.0 | 3.0 | 0.00 | 0.19 | 0.12 | 78 | 1015.6 |
| 20260507174304 | 56 | 9 | 1.0 | 3.0 | 0.00 | 0.19 | 0.12 | 78 | 1015.6 |
| 20260507173304 | 56 | 302 | 1.0 | 6.0 | 0.00 | 0.19 | 0.12 | 77 | 1015.6 |
| 20260507172307 | 56 | 8 | 1.0 | 3.0 | 0.00 | 0.20 | 0.12 | 78 | 1015.3 |
| 20260507171804 | 56 | 28 | 3.0 | 5.0 | 0.00 | 0.20 | 0.12 | 77 | 1015.3 |
| 20260507171304 | 57 | 41 | 1.0 | 5.0 | 0.00 | 0.21 | 0.12 | 77 | 1015.3 |
| 20260507170804 | 57 | 29 | 2.0 | 5.0 | 0.00 | 0.21 | 0.12 | 76 | 1015.3 |
| 20260507165803 | 58 | 309 | 2.0 | 7.0 | 0.00 | 0.22 | 0.12 | 75 | 1015.3 |
| 20260507165306 | 58 | 326 | 2.0 | 5.0 | 0.00 | 0.23 | 0.12 | 74 | 1015.3 |
| 20260507164303 | 57 | 17 | 2.0 | 5.0 | 0.00 | 0.23 | 0.12 | 75 | 1015.3 |
| 20260507163804 | 58 | 7 | 1.0 | 2.0 | 0.00 | 0.24 | 0.12 | 75 | 1015.2 |
| 20260507163303 | 58 | 294 | 1.0 | 5.0 | 0.00 | 0.24 | 0.12 | 74 | 1015.2 |
| 20260507162803 | 58 | 320 | 2.0 | 5.0 | 0.00 | 0.24 | 0.12 | 73 | 1015.2 |
| 20260507162306 | 59 | 36 | 1.0 | 3.0 | 0.00 | 0.24 | 0.12 | 73 | 1015.2 |
| 20260507161803 | 59 | 12 | 1.0 | 3.0 | 0.00 | 0.24 | 0.12 | 74 | 1015.2 |
| 20260507161303 | 58 | 343 | 1.0 | 3.0 | 0.00 | 0.24 | 0.12 | 74 | 1015.2 |
| 20260507160804 | 58 | 315 | 1.0 | 5.0 | 0.00 | 0.25 | 0.12 | 73 | 1015.2 |
| 20260507160304 | 58 | 271 | 2.0 | 6.0 | 0.00 | 0.26 | 0.12 | 74 | 1015.2 |
| 20260507155804 | 58 | 151 | 2.0 | 7.0 | 0.00 | 0.27 | 0.12 | 74 | 1015.2 |
| 20260507155306 | 58 | 345 | 2.0 | 6.0 | 0.00 | 0.28 | 0.12 | 74 | 1015.2 |
| 20260507154803 | 59 | 275 | 2.0 | 5.0 | 0.00 | 0.28 | 0.12 | 72 | 1015.2 |
| 20260507153803 | 60 | 342 | 1.0 | 5.0 | 0.00 | 0.29 | 0.12 | 71 | 1015.1 |
| 20260507153304 | 59 | 250 | 1.0 | 5.0 | 0.00 | 0.29 | 0.12 | 74 | 1015.1 |
| 20260507152804 | 59 | 29 | 2.0 | 6.0 | 0.00 | 0.29 | 0.12 | 74 | 1015.1 |
| 20260507152306 | 58 | 66 | 0.0 | 5.0 | 0.00 | 0.30 | 0.12 | 76 | 1015.1 |
| 20260507151803 | 59 | 285 | 2.0 | 6.0 | 0.00 | 0.30 | 0.12 | 75 | 1015.1 |
| 20260507151304 | 59 | 299 | 2.0 | 5.0 | 0.00 | 0.31 | 0.12 | 75 | 1015.1 |
| 20260507150803 | 58 | 120 | 1.0 | 2.0 | 0.00 | 0.31 | 0.12 | 75 | 1015.2 |
| 20260507150303 | 58 | 343 | 1.0 | 5.0 | 0.00 | 0.31 | 0.12 | 77 | 1015.2 |
| 20260507145803 | 57 | 25 | 2.0 | 5.0 | 0.00 | 0.31 | 0.12 | 76 | 1015.2 |
| 20260507145306 | 57 | 6 | 2.0 | 5.0 | 0.00 | 0.31 | 0.12 | 78 | 1015.2 |
| 20260507144804 | 57 | 325 | 1.0 | 2.0 | 0.00 | 0.31 | 0.12 | 77 | 1015.3 |
| 20260507144304 | 56 | 27 | 2.0 | 5.0 | 0.00 | 0.31 | 0.12 | 79 | 1015.3 |
| 20260507143803 | 57 | 287 | 1.0 | 5.0 | 0.00 | 0.31 | 0.12 | 77 | 1015.3 |
| 20260507143304 | 57 | 288 | 1.0 | 3.0 | 0.00 | 0.31 | 0.12 | 76 | 1015.2 |
| 20260507142804 | 58 | 311 | 2.0 | 8.0 | 0.00 | 0.31 | 0.12 | 75 | 1015.2 |
| 20260507142306 | 58 | 313 | 2.0 | 5.0 | 0.00 | 0.31 | 0.12 | 74 | 1015.2 |
| 20260507141803 | 58 | 292 | 3.0 | 8.0 | 0.00 | 0.31 | 0.12 | 73 | 1015.2 |
| 20260507140804 | 58 | 262 | 2.0 | 5.0 | 0.00 | 0.31 | 0.12 | 75 | 1015.2 |
| 20260507135306 | 58 | 282 | 2.0 | 5.0 | 0.00 | 0.31 | 0.12 | 73 | 1015.2 |
| 20260507134804 | 59 | 302 | 1.0 | 5.0 | 0.00 | 0.31 | 0.12 | 71 | 1015.2 |
| 20260507134303 | 60 | 281 | 2.0 | 5.0 | 0.00 | 0.31 | 0.12 | 70 | 1015.2 |
| 20260507133303 | 61 | 317 | 1.0 | 5.0 | 0.00 | 0.31 | 0.12 | 71 | 1015.2 |
| 20260507132804 | 60 | 337 | 0.0 | 3.0 | 0.00 | 0.31 | 0.12 | 72 | 1015.2 |
| 20260507132307 | 60 | 315 | 1.0 | 3.0 | 0.00 | 0.31 | 0.12 | 72 | 1015.2 |
| 20260507131803 | 58 | 318 | 2.0 | 5.0 | 0.00 | 0.31 | 0.12 | 74 | 1015.2 |
| 20260507131304 | 57 | 300 | 2.0 | 5.0 | 0.00 | 0.31 | 0.12 | 77 | 1015.0 |
| 20260507130804 | 57 | 291 | 2.0 | 6.0 | 0.00 | 0.31 | 0.12 | 76 | 1015.0 |
| 20260507130303 | 57 | 344 | 2.0 | 6.0 | 0.00 | 0.31 | 0.12 | 75 | 1015.0 |
| 20260507125306 | 59 | 289 | 2.0 | 5.0 | 0.00 | 0.31 | 0.12 | 75 | 1015.1 |
| 20260507124804 | 59 | 34 | 3.0 | 9.0 | 0.00 | 0.31 | 0.12 | 72 | 1015.1 |
| 20260507124304 | 58 | 38 | 2.0 | 5.0 | 0.00 | 0.31 | 0.12 | 73 | 1015.1 |
| 20260507123304 | 57 | 306 | 2.0 | 7.0 | 0.00 | 0.31 | 0.12 | 77 | 1015.1 |
| 20260507122307 | 59 | 334 | 1.0 | 5.0 | 0.00 | 0.31 | 0.12 | 74 | 1014.9 |